Location: Civry
(47.2902°N, 4.6156°E)
Time: 02:40:15
(UTC+00:00)

SL-16 R/B - Pass Details

Date: 09 April 2020
Orbit: 985 x 1007 km, 99.5° (Epoch: 04 June)

Event Time Altitude Azimuth Distance (km) Brightness Sun altitude
Exits shadow 23:48:44 22° 78° (ENE) 2,051 4.2 -34.7°
Maximum altitude 23:50:19 24° 56° (ENE) 1,943 4.3 -34.6°
Drops below altitude 10° 23:55:06 10° 6° (N) 2,775 5.7 -34.6°
Sets 23:58:02 0° 353° (N) 3,724 6.5 -34.6°
